Montreal/Mirabel, Ontario

9:23 PM EST on January 19, 2017 (GMT -0500)
Montreal International (Mirabel)

Weather History for CYMX - January, 2013

Change the Weather History Date:

Thursday, January 3, 2013

  Actual Average Record
Temperature  
Mean Temperature -8 °F -  
Max Temperature 1 °F 21 °F 42 °F (1998)
Min Temperature -16 °F 7 °F -16 °F (2008)
Degree Days  
Heating Degree Days 72    
Moisture  
Dew Point -12 °F    
Average Humidity 75    
Maximum Humidity 85    
Minimum Humidity 60    
Precipitation  
Precipitation 0.00 in - - ()
Sea Level Pressure  
Sea Level Pressure 30.14 in    
Wind  
Wind Speed 2 mph ()    
Max Wind Speed 8 mph    
Max Gust Speed -    
Visibility 5.5 miles    
Events Snow    
Averages and records for this station are not official NWS values.
T = Trace of Precipitation, MM = Missing Value Source: Averaged Metar Reports

Daily Weather History Graph

Daily Weather History Graph

Search for Another Location

Airport or City:

Trip Planner

Search our weather history database for the weather conditions in past years. The results will help you decide how hot, cold, wet, or windy it might be!

Date:

Astronomy

Jan. 03, 2013 Rise Set
Actual Time 7:36 AM EST 4:24 PM EST
Civil Twilight 7:02 AM EST 4:59 PM EST
Nautical Twilight 6:25 AM EST 5:36 PM EST
Astronomical Twilight 5:49 AM EST 6:12 PM EST
Moon 11:19 PM EST (1/3) 10:27 AM EST (1/3)
Length of Visible Light 9h 56m
Length of Day
8h 48m
Waning Gibbous, 65% of the Moon is Illuminated
Jan 3
Waning Gibbous
Jan 4
Last Quarter
Jan 11
New
Jan 18
First Quarter
Jan 26
Full

Hourly Weather History & Observations

Time (EST) Temp. Windchill Dew Point Humidity Pressure Visibility Wind Dir Wind Speed Gust Speed Precip Events Conditions
12:00 AM -16.6 °F - -22.0 °F 76% 30.29 in 25.0 mi Calm Calm - N/A   Clear
1:00 AM -16.6 °F -29.3 °F -20.2 °F 84% 30.30 in 25.0 mi WSW 4.6 mph - N/A   Scattered Clouds
2:00 AM -11.2 °F -24.8 °F -16.6 °F 77% 30.30 in 25.0 mi West 5.8 mph - N/A   Mostly Cloudy
3:00 AM -11.2 °F -20.6 °F -16.6 °F 77% 30.30 in 25.0 mi NW 3.5 mph - N/A   Mostly Cloudy
4:00 AM -11.2 °F - -16.6 °F 77% 30.27 in 25.0 mi Calm Calm - N/A   Mostly Cloudy
5:00 AM -13.0 °F - -18.4 °F 77% 30.26 in 25.0 mi Calm Calm - N/A   Mostly Cloudy
6:00 AM -14.8 °F - -20.2 °F 77% 30.26 in 25.0 mi Calm Calm - N/A   Mostly Cloudy
7:00 AM -16.6 °F - -20.2 °F 84% 30.25 in 25.0 mi Calm Calm - N/A   Mostly Cloudy
8:00 AM -16.6 °F - -22.0 °F 76% 30.24 in 45.0 mi Calm Calm - N/A   Mostly Cloudy
9:00 AM -13.0 °F - -18.4 °F 77% 30.23 in 25.0 mi Calm Calm - N/A   Mostly Cloudy
10:00 AM -7.6 °F - -13.0 °F 77% 30.22 in 25.0 mi Calm Calm - N/A   Mostly Cloudy
11:00 AM -4.0 °F -12.4 °F -13.0 °F 65% 30.19 in 25.0 mi SW 3.5 mph - N/A   Overcast
12:00 PM -2.2 °F - -11.2 °F 66% 30.16 in 25.0 mi Calm Calm - N/A   Overcast
1:00 PM -0.4 °F -8.3 °F -11.2 °F 60% 30.14 in 25.0 mi SW 3.5 mph - N/A   Overcast
1:23 PM -0.4 °F -8.3 °F -11.2 °F 60% 30.12 in 20.0 mi West 3.5 mph - N/A Snow Light Snow
2:00 PM -0.4 °F - -9.4 °F 66% 30.11 in 8.0 mi Calm Calm - N/A Snow Light Snow
3:00 PM -0.4 °F - -7.6 °F 72% 30.09 in 4.0 mi Calm Calm - N/A Snow Light Snow
3:42 PM -0.4 °F - -7.6 °F 72% 30.08 in 2.5 mi Calm Calm - N/A Snow Light Snow
4:00 PM -0.4 °F - -7.6 °F 72% 30.07 in 2.5 mi East 2.3 mph - N/A Snow Light Snow
4:24 PM -0.4 °F - -5.8 °F 78% 30.06 in 3.0 mi East 2.3 mph - N/A Snow Light Snow
5:00 PM -0.4 °F -10.4 °F -5.8 °F 78% 30.04 in 3.0 mi East 4.6 mph - N/A Snow Light Snow
6:00 PM -0.4 °F -8.3 °F -5.8 °F 78% 30.02 in 5.0 mi NE 3.5 mph - N/A Snow Light Snow
7:00 PM -0.4 °F -10.4 °F -5.8 °F 78% 30.01 in 6.0 mi NNE 4.6 mph - N/A Snow Light Snow
8:00 PM -0.4 °F -8.3 °F -4.0 °F 85% 29.98 in 6.0 mi NNE 3.5 mph - N/A Snow Light Snow
9:00 PM 1.4 °F -11.3 °F -4.0 °F 78% 29.95 in 3.0 mi NE 6.9 mph - N/A Snow Light Snow
10:00 PM 1.4 °F -12.5 °F -2.2 °F 85% 29.93 in 3.0 mi ENE 8.1 mph - N/A Snow Light Snow
11:00 PM 1.4 °F -6.2 °F -2.2 °F 85% 29.92 in 30.0 mi NNE 3.5 mph - N/A Snow Light Snow